Temp
55 55 55 55 55 54 54 55 55 56 56 56 56 56 56 56 55 53 59 65 61 58 66 72 74 65 65 63 57 61 63 64 62 57 57 58 57 61 59 61 56 57 53 53 54 52 51 67 70 61 58 62 70 64
55 55 54 55 54 54 54 55 55 55 55 56 56 56 56 55 55 55 56 69 70 59 63 71 74 74 71 70 62 62 60 61 61 57 55 56 57 56 53 52 62 51 53 51 52 52 62 65 59 61 61 60 61 64
54 54 54 54 54 53 53 54 55 55 55 55 55 55 55 55 54 53 55 60 63 59 63 66 68 74 77 75 76 59 63 65 62 64 58 57 52 53 49 51 58 58 59 55 54 59 61 56 65 63 63 65 66 66
54 54 54 54 53 53 53 54 55 55 55 55 55 55 55 54 54 54 55 62 63 61 55 64 79 72 79 77 75 73 68 67 65 64 59 59 58 59 57 60 57 59 60 54 56 56 60 62 61 59 61 65 68 70
54 54 54 54 53 53 53 54 55 55 55 55 55 55 55 54 53 54 59 64 67 58 54 60 72 77 77 74 74 72 67 63 61 59 58 57 62 60 63 62 57 61 55 51 51 53 55 55 57 59 56 58 70 74
54 54 54 53 53 53 53 54 54 55 55 55 55 55 54 53 53 55 58 64 63 63 56 56 69 70 74 73 70 67 66 63 62 59 59 63 67 60 55 54 59 62 61 60 55 57 58 58 60 60 57 54 68 75
53 53 54 53 53 53 53 54 54 54 54 54 54 54 53 53 52 54 53 57 54 57 57 58 60 70 73 70 68 67 67 65 63 61 59 60 61 62 57 52 62 63 61 61 60 60 57 55 55 60 59 63 65 66
53 53 53 53 53 53 53 53 54 54 54 54 53 53 53 53 52 54 60 56 54 58 61 55 60 63 72 63 60 67 63 64 62 61 62 58 60 59 53 61 63 64 64 64 61 60 57 57 59 63 66 66 65 64
53 53 53 53 53 52 53 53 53 53 53 53 53 53 53 53 57 59 58 59 61 58 53 58 56 54 70 65 65 64 65 57 64 58 60 61 56 52 58 60 62 64 62 64 67 67 61 61 61 63 63 61 59 60
52 53 53 53 52 52 52 53 53 53 53 53 52 52 52 59 58 59 58 57 57 60 59 56 64 58 66 63 60 61 62 58 53 60 65 57 55 62 65 65 63 65 67 67 62 62 65 65 65 61 62 61 61 61
52 53 53 52 52 52 52 52 52 52 50 52 53 56 61 57 59 58 55 54 56 55 60 60 61 58 68 59 57 60 55 57 51 56 56 54 53 54 61 63 65 67 67 67 66 67 67 67 66 64 61 62 61 61
52 52 52 51 51 51 52 52 52 51 55 53 51 56 62 58 56 54 52 56 56 54 61 59 60 63 64 64 59 59 55 56 50 60 54 50 51 53 56 56 56 66 68 68 69 67 68 70 68 66 62 60 59 59
50 50 50 50 51 51 51 51 51 53 53 57 54 57 56 54 44 48 46 52 53 60 62 62 59 62 62 63 59 57 54 52 61 51 51 49 53 54 53 56 56 60 69 70 70 70 70 70 70 67 65 64 62 62
50 50 50 50 50 50 51 51 52 52 49 51 52 36 47 48 51 55 57 58 62 63 62 61 60 58 60 57 59 55 58 58 50 49 48 50 52 54 54 55 58 55 63 64 65 67 68 68 67 67 67 64 64 62
50 50 50 49 50 51 51 51 52 52 51 50 56 41 50 59 62 64 65 63 65 64 64 60 59 59 58 57 58 56 53 49 52 46 50 52 55 55 55 57 58 61 62 63 62 64 64 64 63 63 65 65 65 64
50 50 49 50 50 51 50 50 50 50 54 55 55 54 59 58 61 63 63 60 65 65 65 63 57 54 55 55 55 53 52 49 48 51 52 53 52 53 54 55 55 61 62 61 61 61 61 61 61 61 62 62 61 60
52 48 50 51 50 50 51 48 51 53 54 55 54 61 62 62 59 59 62 63 64 63 57 58 52 52 58 54 54 56 48 51 51 53 52 53 53 55 55 57 61 60 59 60 60 60 60 61 60 58 56 58 59 59
49 51 51 51 51 52 54 51 55 55 51 55 55 59 63 63 60 58 60 63 60 57 59 56 60 52 47 47 46 48 47 50 58 55 53 54 56 58 60 59 59 59 59 60 59 60 60 59 59 57 57 59 58 59
52 53 51 52 53 53 54 56 57 49 53 57 60 62 61 61 63 60 61 61 65 66 63 60 53 49 46 49 50 49 50 49 53 54 55 58 60 60 59 59 59 59 59 58 57 56 56 58 59 59 59 59 57 55
52 52 52 52 53 51 53 54 59 52 50 56 60 55 60 60 61 64 63 63 62 62 59 54 52 52 47 49 50 51 58 60 60 54 54 56 60 59 57 57 57 58 57 58 56 54 57 57 58 60 58 56 56 56
54 51 53 54 56 55 52 54 54 57 58 56 59 58 59 62 61 61 60 64 59 58 57 59 55 52 53 56 57 58 59 58 57 58 56 56 57 58 58 57 58 58 57 55 55 55 56 57 58 60 59 57 57 56
54 52 55 55 52 55 53 59 56 58 54 57 56 59 56 56 57 59 61 58 59 58 59 61 59 59 58 59 60 61 61 61 61 54 50 52 57 56 56 56 56 56 56 57 56 56 57 58 59 59 57 56 53 59
52 56 56 56 50 45 44 58 51 54 48 52 55 52 54 55 59 63 57 60 61 64 63 62 62 63 61 63 63 61 61 59 59 58 56 59 58 58 57 56 57 56 56 58 59 60 57 50 54 57 59 58 58 58
55 52 47 46 49 43 54 50 52 49 51 50 49 49 52 54 60 57 54 57 59 64 62 60 63 62 61 60 59 57 59 60 58 57 57 57 55 54 55 58 58 61 59 60 61 60 60 59 56 59 60 59 61 60
42 43 43 34 51 48 45 42 42 43 45 46 45 48 53 59 52 53 52 57 59 58 59 62 63 62 60 59 59 57 59 57 56 57 57 58 58 58 57 63 61 62 64 62 61 62 62 63 62 63 65 63 64 64
35 48 41 46 43 41 40 39 42 47 50 48 52 57 59 55 52 44 55 60 60 60 60 62 58 57 58 60 57 56 57 58 58 56 59 62 62 61 59 60 58 61 65 65 63 62 63 64 64 66 66 65 55 63
38 47 52 52 51 54 52 58 60 57 55 53 56 55 54 49 49 55 61 61 58 60 64 63 62 60 57 60 60 61 61 61 60 62 64 64 68 67 66 62 61 63 65 67 67 67 65 66 66 67 65 64 65 67
50 52 47 54 55 59 54 55 55 54 56 59 59 52 51 51 49 55 57 61 63 63 64 61 63 61 59 62 64 61 63 64 66 67 69 69 71 69 69 69 68 54 64 67 68 68 67 65 66 68 67 65 64 67
49 54 53 50 54 56 55 54 55 56 59 59 53 51 53 59 62 61 59 64 63 64 62 63 63 65 64 63 60 58 65 63 59 60 60 61 63 67 68 69 68 68 68 68 51 59 65 65 64 66 68 66 65 65
49 54 49 50 48 49 56 57 53 56 61 60 59 59 60 62 64 65 63 64 61 60 62 63 62 64 60 63 63 65 70 70 69 65 61 59 61 70 70 70 71 71 71 70 69 70 53 61 62 66 65 66 64 62
50 52 48 46 45 51 55 58 57 58 58 56 58 55 54 58 59 56 58 58 63 60 60 63 64 64 59 57 58 62 62 66 67 69 70 70 72 71 71 71 72 71 70 70 70 69 69 67 66 66 66 65 65 64
49 47 45 43 48 55 54 50 50 51 53 53 53 54 55 51 51 57 64 63 58 58 54 61 64 66 65 65 65 67 53 69 69 69 67 67 68 68 71 72 72 70 69 69 70 70 69 68 67 67 66 67 66 66
51 51 49 49 53 53 57 56 55 55 56 54 55 57 59 59 55 61 67 66 63 61 58 60 59 61 64 65 64 65 57 69 59 48 46 45 44 51 66 71 70 70 70 69 70 70 70 69 68 68 67 66 66 66
MSLP
1014.13 1014.98 1015.81 1016.58 1017.34 1018.09 1018.65 1019.07 1019.29 1019.39 1019.38 1019.43 1019.21 1018.94 1018.58 1018.26 1017.85 1017.39 1015.45 1013.87 1013.78 1012.93 1011.02 1010.11 1009.60 1009.59 1009.42 1009.72 1009.84 1009.49 1008.58 1008.70 1008.59 1008.76 1008.71 1008.43 1007.60 1006.87 1006.46 1006.54 1006.76 1007.09 1007.72 1007.61 1007.70 1007.41 1007.52 1007.07 1005.89 1006.48 1008.61 1007.88 1006.37 1006.42
1013.37 1014.09 1014.96 1015.86 1016.67 1017.45 1018.16 1018.53 1018.83 1019.02 1019.16 1019.18 1019.04 1018.84 1018.50 1018.16 1017.77 1017.25 1015.88 1013.70 1013.44 1013.49 1011.73 1010.84 1010.12 1009.88 1009.90 1010.09 1010.26 1010.05 1010.26 1010.34 1010.31 1010.35 1010.18 1009.68 1009.09 1008.70 1008.42 1007.97 1007.47 1008.46 1009.10 1009.46 1009.45 1009.09 1008.69 1008.40 1008.88 1008.66 1009.70 1008.22 1007.55 1008.09
1012.57 1013.28 1014.16 1015.07 1015.99 1016.87 1017.61 1018.04 1018.48 1018.75 1018.90 1018.95 1018.84 1018.69 1018.37 1018.02 1017.86 1017.64 1016.49 1015.01 1013.73 1012.98 1011.38 1010.40 1009.78 1009.77 1009.66 1009.83 1009.92 1010.59 1010.70 1010.89 1011.06 1011.10 1010.92 1010.17 1010.08 1010.18 1009.72 1009.55 1009.14 1009.43 1009.48 1009.96 1010.20 1010.26 1010.37 1010.88 1010.22 1010.21 1008.94 1008.48 1007.70 1008.01
1011.85 1012.57 1013.53 1014.46 1015.41 1016.20 1017.05 1017.60 1018.12 1018.45 1018.64 1018.72 1018.68 1018.58 1018.33 1018.00 1017.81 1017.61 1016.73 1015.16 1014.21 1013.53 1012.28 1010.36 1009.40 1009.73 1009.69 1009.77 1010.16 1010.31 1010.64 1010.95 1011.07 1011.02 1010.97 1010.44 1010.08 1009.91 1009.52 1009.27 1009.52 1009.89 1010.11 1011.14 1011.14 1011.67 1010.88 1010.60 1011.17 1012.23 1011.57 1011.23 1008.12 1007.26
1011.20 1011.97 1012.90 1013.86 1014.84 1015.69 1016.50 1017.21 1017.76 1018.14 1018.40 1018.53 1018.55 1018.47 1018.26 1018.05 1017.84 1017.36 1016.43 1015.07 1014.27 1014.60 1013.35 1011.19 1009.72 1009.58 1009.72 1009.97 1010.16 1010.27 1010.65 1011.09 1011.17 1010.94 1010.78 1010.38 1009.59 1009.60 1009.23 1009.01 1009.70 1010.12 1011.02 1011.67 1012.05 1013.31 1013.27 1013.02 1012.35 1011.58 1012.23 1012.64 1010.52 1006.86
1010.92 1011.55 1012.46 1013.45 1014.35 1015.33 1016.20 1016.94 1017.43 1017.82 1018.10 1018.29 1018.33 1018.22 1018.22 1018.14 1017.81 1017.26 1015.87 1015.25 1015.28 1015.22 1014.38 1011.78 1009.93 1009.63 1009.73 1010.05 1010.28 1010.44 1010.76 1010.95 1011.00 1010.93 1010.70 1010.01 1009.67 1009.73 1009.94 1009.84 1010.09 1010.25 1010.99 1011.32 1012.25 1012.55 1013.17 1013.78 1013.91 1012.50 1013.06 1011.36 1009.43 1005.56
1010.81 1011.31 1012.14 1013.04 1014.03 1014.99 1015.96 1016.72 1017.17 1017.64 1017.93 1018.13 1018.13 1018.13 1018.08 1018.09 1017.90 1017.25 1017.04 1016.20 1016.20 1016.06 1014.67 1012.20 1010.13 1009.68 1009.64 1010.09 1010.32 1010.40 1010.39 1010.55 1010.59 1010.61 1010.39 1010.20 1009.78 1009.79 1009.97 1010.02 1009.67 1010.10 1010.47 1010.97 1012.00 1012.42 1013.35 1013.30 1012.84 1011.99 1012.16 1008.59 1007.66 1006.58
1010.85 1011.25 1011.89 1012.83 1013.76 1014.73 1015.70 1016.49 1017.05 1017.45 1017.82 1018.00 1018.09 1018.13 1017.93 1017.71 1017.39 1016.70 1015.52 1015.62 1016.21 1015.53 1014.01 1012.55 1010.48 1009.80 1009.56 1009.89 1010.14 1009.81 1010.09 1010.15 1010.17 1010.18 1010.07 1010.16 1010.05 1010.02 1010.06 1009.80 1009.56 1010.33 1010.47 1010.70 1011.16 1011.60 1012.18 1012.30 1011.28 1012.26 1011.24 1010.47 1008.98 1008.88
1010.90 1011.24 1011.70 1012.53 1013.50 1014.52 1015.51 1016.37 1016.96 1017.42 1017.76 1018.01 1018.04 1017.89 1017.53 1017.05 1016.02 1015.54 1015.36 1015.54 1015.37 1015.48 1014.20 1012.27 1010.57 1009.86 1009.49 1009.58 1009.49 1009.46 1009.54 1009.97 1009.64 1009.80 1009.64 1009.91 1010.21 1010.28 1009.90 1009.74 1009.35 1009.82 1009.88 1010.10 1010.03 1010.41 1011.36 1011.39 1011.33 1011.34 1010.99 1011.06 1011.73 1011.54
1010.97 1011.09 1011.55 1012.35 1013.16 1014.37 1015.49 1016.30 1016.93 1017.49 1017.88 1018.03 1017.97 1017.53 1016.50 1015.27 1015.14 1015.21 1015.51 1015.20 1014.92 1014.17 1013.76 1012.42 1010.70 1009.72 1009.30 1009.30 1009.52 1009.58 1009.53 1009.83 1009.75 1009.41 1008.96 1009.50 1010.11 1009.97 1009.82 1009.36 1009.45 1009.56 1009.75 1009.77 1010.00 1009.90 1009.95 1010.28 1010.46 1011.05 1011.34 1011.75 1012.52 1012.68
1010.03 1010.57 1011.25 1012.11 1013.19 1014.41 1015.55 1016.46 1017.12 1017.78 1017.94 1017.78 1017.19 1015.91 1015.28 1015.23 1015.22 1014.82 1014.41 1014.19 1013.66 1013.03 1012.24 1011.34 1010.71 1010.20 1009.22 1009.39 1009.92 1010.24 1010.44 1010.38 1010.32 1010.17 1010.31 1010.55 1011.26 1012.48 1011.38 1010.82 1010.32 1010.08 1010.08 1010.41 1010.35 1010.30 1010.30 1010.12 1010.35 1010.84 1011.77 1012.18 1012.66 1012.42
1009.81 1010.39 1011.21 1012.33 1013.57 1014.65 1015.69 1016.43 1017.08 1017.27 1017.02 1017.11 1017.05 1015.75 1014.91 1014.99 1014.58 1013.99 1013.44 1012.90 1012.18 1011.46 1010.42 1010.25 1010.01 1009.91 1009.79 1009.76 1010.11 1010.60 1010.88 1011.02 1010.70 1010.71 1011.49 1012.09 1013.29 1013.39 1012.80 1012.75 1012.61 1011.46 1010.51 1010.46 1010.47 1010.66 1010.47 1010.30 1010.49 1010.71 1011.15 1011.63 1011.78 1011.69
1011.80 1011.97 1012.28 1013.06 1014.23 1015.11 1015.92 1016.57 1016.95 1016.93 1016.99 1016.10 1016.32 1015.11 1014.35 1014.03 1013.72 1012.97 1012.11 1011.38 1010.89 1010.21 1009.82 1009.71 1009.75 1009.77 1010.14 1010.25 1010.55 1010.67 1010.94 1011.16 1011.09 1012.07 1012.47 1013.47 1014.13 1014.24 1014.27 1013.74 1013.51 1012.70 1011.69 1010.78 1010.35 1010.60 1010.63 1010.61 1011.01 1011.27 1011.76 1011.96 1012.14 1011.97
1012.73 1013.32 1013.87 1014.39 1015.08 1015.75 1016.37 1017.03 1017.56 1017.96 1017.79 1016.29 1014.91 1014.70 1013.83 1012.85 1012.24 1011.20 1010.41 1009.93 1009.60 1009.63 1009.71 1009.83 1010.02 1010.17 1010.17 1010.76 1010.79 1010.90 1011.15 1011.40 1011.85 1012.42 1013.34 1014.42 1014.62 1014.68 1014.27 1014.89 1014.53 1014.34 1012.61 1011.92 1011.67 1011.59 1011.46 1011.45 1011.39 1011.44 1011.70 1012.05 1012.38 1012.81
1013.38 1014.02 1014.61 1015.25 1015.71 1016.37 1016.96 1017.47 1017.76 1017.90 1017.01 1015.41 1013.66 1013.11 1012.43 1011.34 1010.76 1010.18 1009.89 1009.66 1009.59 1009.59 1009.61 1010.16 1010.64 1010.84 1010.66 1010.97 1011.06 1011.28 1011.73 1012.14 1012.41 1013.55 1014.47 1014.99 1014.76 1014.65 1014.64 1014.59 1014.36 1013.44 1012.84 1012.53 1012.59 1012.59 1012.66 1012.67 1012.54 1012.56 1012.65 1012.70 1012.66 1012.89
1014.15 1014.61 1015.17 1015.73 1016.26 1016.82 1017.40 1017.77 1017.84 1017.60 1015.82 1014.09 1012.95 1011.77 1011.08 1010.70 1009.92 1009.77 1009.88 1010.04 1009.96 1009.77 1009.77 1010.09 1011.03 1011.61 1011.56 1011.63 1011.46 1011.90 1012.20 1012.49 1013.63 1014.58 1015.25 1015.29 1015.17 1015.03 1014.97 1014.96 1014.72 1013.82 1013.32 1013.31 1013.28 1013.26 1013.25 1013.09 1013.14 1013.21 1013.38 1013.46 1013.59 1013.59
1014.02 1014.99 1015.71 1016.16 1016.71 1017.25 1017.76 1018.10 1017.21 1015.80 1014.29 1012.95 1011.96 1011.05 1010.67 1010.29 1010.38 1010.61 1009.95 1010.14 1010.29 1010.28 1010.47 1010.97 1011.64 1011.98 1011.78 1012.16 1012.31 1012.45 1013.57 1014.09 1014.57 1015.05 1014.94 1015.11 1015.16 1014.78 1014.70 1014.74 1014.61 1014.31 1013.99 1013.74 1013.83 1013.88 1013.76 1013.55 1013.58 1013.80 1013.98 1013.99 1014.06 1014.26
1015.20 1015.67 1016.09 1016.64 1017.00 1017.33 1017.11 1016.85 1015.14 1014.16 1013.60 1012.75 1011.80 1010.86 1010.77 1010.71 1010.93 1011.27 1011.27 1010.97 1011.04 1011.32 1011.28 1011.52 1012.02 1013.04 1013.86 1014.12 1014.53 1014.97 1015.47 1014.60 1014.38 1014.74 1014.91 1015.14 1015.09 1014.67 1014.49 1014.36 1014.27 1014.14 1014.10 1013.99 1014.05 1014.12 1014.12 1014.12 1014.10 1014.30 1014.30 1014.28 1014.47 1014.44
1015.49 1016.03 1016.53 1016.86 1017.05 1016.76 1015.76 1015.31 1014.78 1014.15 1013.44 1012.67 1012.12 1011.52 1011.42 1011.34 1011.27 1011.52 1011.55 1011.31 1011.05 1010.95 1011.26 1011.76 1012.87 1013.98 1015.23 1015.32 1015.70 1015.78 1014.95 1015.64 1014.66 1014.52 1014.76 1014.83 1014.76 1014.60 1014.47 1014.40 1014.31 1014.25 1014.24 1014.35 1014.33 1014.46 1014.51 1014.40 1014.46 1014.47 1014.41 1014.38 1014.65 1014.78
1016.68 1016.99 1017.17 1017.28 1017.26 1016.65 1015.32 1015.09 1015.04 1014.38 1013.33 1012.56 1011.99 1012.12 1011.66 1011.62 1011.48 1011.43 1011.57 1011.52 1011.35 1011.34 1011.54 1012.37 1013.43 1014.55 1015.52 1014.83 1015.21 1015.16 1014.10 1013.77 1014.00 1014.47 1014.86 1014.98 1014.82 1014.67 1014.73 1014.78 1014.74 1014.63 1014.53 1014.55 1014.70 1014.71 1014.64 1014.60 1014.53 1014.53 1014.63 1014.68 1014.75 1014.82
1016.68 1017.62 1017.60 1017.53 1016.84 1016.47 1015.89 1014.82 1014.48 1013.76 1013.01 1012.71 1012.52 1012.35 1011.86 1011.69 1011.59 1011.56 1011.67 1011.48 1011.55 1011.41 1011.69 1012.57 1013.34 1014.55 1014.70 1014.34 1014.09 1014.09 1014.16 1014.17 1014.43 1014.52 1014.84 1014.93 1015.03 1014.92 1014.86 1014.96 1014.91 1014.84 1014.66 1014.70 1014.73 1014.75 1014.63 1014.64 1014.63 1014.55 1014.63 1014.94 1015.05 1015.10
1017.73 1017.93 1017.56 1017.43 1016.80 1015.89 1015.50 1014.52 1014.19 1013.88 1013.75 1013.04 1012.84 1012.46 1012.23 1011.97 1011.87 1011.92 1011.79 1011.76 1011.54 1011.84 1012.13 1012.43 1012.73 1013.43 1013.92 1013.85 1013.83 1013.98 1014.12 1014.29 1014.31 1014.68 1014.96 1015.14 1015.09 1015.08 1015.02 1014.95 1014.92 1014.82 1014.72 1014.65 1014.64 1014.64 1014.64 1014.68 1014.68 1014.86 1014.92 1014.97 1014.93 1014.90
1018.00 1017.70 1017.29 1016.89 1016.43 1015.93 1015.39 1014.45 1014.52 1014.26 1014.02 1013.54 1013.22 1013.02 1012.61 1012.20 1012.04 1012.13 1011.91 1011.73 1011.67 1011.57 1012.05 1012.55 1012.93 1013.25 1013.52 1013.61 1013.66 1014.01 1014.28 1014.44 1014.46 1014.66 1014.92 1015.00 1014.99 1015.00 1015.01 1014.90 1014.76 1014.66 1014.73 1014.61 1014.45 1014.49 1014.80 1014.92 1014.96 1014.93 1014.85 1014.74 1014.60 1014.72
1017.85 1017.66 1017.28 1016.79 1016.34 1015.76 1015.11 1015.08 1015.05 1014.86 1014.34 1013.96 1013.60 1013.04 1012.52 1012.26 1012.02 1012.14 1011.88 1011.96 1011.79 1011.51 1012.15 1012.76 1012.92 1013.05 1013.29 1013.59 1013.91 1014.26 1014.42 1014.53 1014.77 1014.89 1014.97 1014.82 1014.82 1014.88 1014.95 1014.78 1014.64 1014.42 1014.60 1014.67 1014.53 1014.63 1014.67 1014.68 1014.57 1014.45 1014.41 1014.32 1013.94 1013.89
1018.13 1017.51 1017.17 1016.52 1015.82 1015.60 1015.59 1015.80 1015.68 1015.34 1014.44 1014.33 1013.90 1012.92 1012.24 1012.05 1012.05 1011.96 1011.93 1012.12 1012.10 1012.22 1012.28 1012.52 1012.78 1012.94 1013.16 1013.72 1014.04 1014.32 1014.52 1014.78 1014.69 1014.42 1014.49 1014.53 1014.49 1014.56 1014.61 1014.34 1014.28 1014.22 1014.21 1014.35 1014.48 1014.44 1014.34 1014.20 1014.09 1014.04 1013.66 1013.66 1013.45 1013.29
1017.64 1016.53 1016.32 1016.02 1016.14 1015.92 1015.69 1015.05 1014.57 1013.90 1013.42 1013.40 1012.76 1012.03 1011.84 1011.76 1011.91 1012.13 1011.84 1012.00 1012.32 1012.62 1012.83 1012.67 1013.03 1013.43 1013.63 1013.75 1014.11 1014.37 1014.38 1014.24 1014.54 1014.53 1014.26 1014.24 1014.16 1013.93 1014.11 1014.02 1014.02 1013.95 1013.79 1013.80 1013.97 1014.20 1013.87 1013.78 1013.61 1013.39 1013.32 1013.35 1013.32 1013.34
1016.78 1015.70 1015.30 1015.27 1014.85 1014.05 1013.53 1012.43 1012.03 1011.88 1011.63 1011.61 1011.65 1011.74 1011.79 1011.98 1012.14 1012.30 1012.35 1012.68 1012.96 1013.11 1012.92 1012.97 1013.25 1013.47 1013.78 1013.93 1014.15 1014.23 1014.18 1014.07 1014.14 1013.98 1013.66 1013.53 1013.36 1013.32 1013.36 1013.54 1013.78 1013.72 1013.81 1013.75 1013.68 1013.59 1013.54 1013.41 1013.34 1013.26 1013.41 1013.36 1013.10 1013.27
1015.98 1015.52 1014.99 1014.31 1013.74 1013.18 1012.79 1012.32 1011.96 1011.67 1011.73 1011.60 1011.35 1011.70 1011.84 1012.08 1012.79 1013.19 1013.23 1013.20 1013.29 1013.14 1013.22 1013.53 1013.49 1013.62 1013.82 1013.80 1013.79 1013.86 1013.88 1013.72 1013.54 1013.44 1013.22 1013.02 1012.97 1012.89 1012.82 1013.12 1013.15 1013.22 1013.39 1013.28 1013.29 1013.22 1013.35 1013.26 1013.19 1012.93 1012.91 1013.01 1013.22 1013.01
1015.74 1015.34 1015.11 1014.60 1014.03 1013.27 1012.89 1012.74 1012.63 1012.79 1012.60 1012.17 1012.28 1012.47 1012.76 1012.96 1013.11 1013.28 1013.54 1013.44 1013.53 1013.46 1013.47 1013.40 1013.47 1013.61 1013.65 1013.74 1013.67 1013.59 1013.68 1013.57 1013.66 1013.34 1013.01 1012.91 1012.93 1012.82 1012.70 1012.66 1012.84 1012.87 1013.02 1012.99 1012.94 1013.03 1013.09 1013.08 1013.20 1013.17 1012.90 1012.88 1012.93 1012.77
1016.04 1015.89 1015.54 1015.06 1014.65 1013.96 1013.27 1013.38 1013.58 1013.55 1013.20 1013.23 1013.26 1013.23 1012.98 1013.00 1013.26 1013.42 1013.61 1013.49 1013.64 1013.62 1013.49 1013.29 1013.34 1013.26 1013.60 1013.71 1013.86 1013.43 1012.89 1012.71 1012.70 1012.91 1013.17 1013.02 1013.11 1012.11 1012.38 1012.28 1012.16 1012.40 1012.44 1012.50 1012.63 1012.67 1012.71 1012.91 1012.80 1012.92 1012.92 1012.69 1012.84 1012.85
1016.43 1015.94 1015.72 1015.58 1015.03 1014.38 1013.99 1013.88 1013.79 1013.66 1013.61 1013.69 1013.71 1013.57 1013.56 1013.48 1013.49 1013.97 1013.95 1013.96 1013.59 1013.64 1013.66 1013.45 1013.36 1013.47 1013.66 1013.73 1013.75 1013.08 1012.77 1012.62 1012.65 1012.78 1012.72 1012.46 1011.81 1011.76 1011.76 1011.60 1011.40 1011.53 1011.79 1011.88 1012.08 1012.15 1012.43 1012.64 1012.74 1012.69 1012.60 1012.58 1012.50 1012.61
1016.08 1015.72 1015.62 1015.14 1014.45 1013.89 1014.07 1013.93 1013.67 1013.71 1013.67 1013.63 1013.62 1013.76 1013.63 1013.72 1013.66 1013.63 1013.46 1013.47 1013.56 1013.67 1013.98 1013.73 1013.65 1013.25 1013.32 1013.17 1013.02 1012.84 1013.00 1012.64 1012.29 1012.31 1012.58 1012.73 1012.44 1012.18 1012.11 1011.86 1011.76 1011.95 1012.05 1012.08 1012.11 1012.01 1012.01 1011.91 1012.26 1012.39 1012.36 1012.34 1012.41 1012.47
1015.24 1015.19 1015.02 1014.63 1013.72 1013.48 1013.28 1013.29 1013.08 1012.88 1012.90 1012.94 1012.97 1013.05 1012.72 1012.64 1012.94 1013.26 1013.47 1013.47 1013.53 1013.67 1013.96 1014.07 1013.84 1013.42 1013.18 1013.27 1013.11 1012.46 1012.35 1012.57 1012.42 1012.61 1012.91 1012.96 1012.79 1012.46 1011.99 1011.78 1011.64 1011.65 1011.79 1012.21 1011.79 1011.73 1011.53 1011.81 1011.99 1012.16 1012.20 1012.31 1012.32 1012.32
Wind_Speed
26 26 25 23 21 19 17 13 11 9 8 8 10 12 14 15 16 8 7 6 1 4 5 5 7 6 5 7 4 6 5 6 5 3 2 4 3 5 3 4 3 3 4 3 3 6 8 14 10 4 4 11 4 13
26 27 26 24 22 20 17 13 11 9 8 7 8 11 13 15 17 14 4 5 4 3 4 4 6 3 2 4 1 5 2 5 3 3 5 5 4 5 8 4 8 5 4 3 2 3 3 3 2 4 4 1 7 18
26 27 27 25 23 21 18 14 12 10 8 7 7 10 12 14 15 11 5 5 4 2 5 3 5 3 3 1 3 3 2 4 3 2 3 4 5 1 3 2 3 2 2 3 6 6 6 17 16 11 9 3 6 21
25 27 27 25 24 21 19 16 13 11 9 7 7 8 11 13 14 12 4 6 4 3 3 2 7 4 2 5 0 3 2 4 3 2 3 3 2 6 4 2 1 2 5 4 4 8 12 8 7 18 25 20 4 8
24 26 27 25 24 22 19 16 14 12 10 8 7 7 10 12 14 9 6 5 3 2 3 4 3 6 5 4 4 4 1 2 2 3 2 3 2 5 4 3 3 2 3 2 2 3 5 6 16 17 23 34 22 14
21 25 26 25 24 22 19 16 14 11 10 8 7 6 9 11 13 4 3 4 7 5 3 3 1 4 6 6 6 3 3 4 3 1 3 4 2 3 1 3 2 5 6 3 4 4 3 5 8 19 22 40 38 9
19 24 25 25 24 22 19 17 14 11 9 7 6 7 9 10 4 2 2 3 7 3 3 4 2 4 8 6 4 4 5 4 2 3 2 3 3 3 1 3 7 9 7 7 7 6 5 10 13 18 16 16 15 16
15 20 23 24 23 22 19 17 13 10 8 6 6 8 11 14 11 5 2 12 4 4 3 3 2 4 5 4 3 5 3 3 3 4 1 2 3 2 2 3 6 8 6 6 8 3 6 7 8 5 11 2 12 10
13 18 22 23 24 23 19 16 13 10 7 4 6 10 5 3 3 2 3 3 3 1 3 3 3 3 3 4 3 2 3 2 4 3 4 3 3 3 3 8 7 5 1 5 4 7 12 6 10 5 10 12 13 10
11 19 23 24 25 23 18 14 11 9 5 0 2 3 3 2 8 4 1 3 3 4 4 4 4 3 4 2 2 1 1 1 2 4 3 2 3 4 4 8 7 6 6 4 6 6 7 6 4 8 9 7 6 5
12 21 24 28 27 25 21 16 13 10 2 2 3 1 3 2 2 3 3 3 4 3 4 4 5 4 5 4 2 2 2 4 1 3 4 3 3 4 17 10 5 4 5 7 7 7 8 6 5 6 6 7 6 8
9 20 28 29 26 23 19 16 14 4 1 5 3 8 2 3 2 4 3 3 4 5 4 5 4 4 2 3 2 2 2 2 4 2 3 1 3 4 9 12 17 12 6 6 6 7 8 7 4 6 5 5 3 5
21 19 23 25 23 20 16 13 12 9 9 3 3 4 2 2 3 5 7 5 4 2 1 1 3 2 3 1 2 2 1 3 3 2 2 3 2 4 5 4 12 17 11 6 6 1 3 4 9 6 4 2 3 1
20 19 19 19 18 16 12 9 6 3 3 3 4 1 4 4 5 5 5 4 4 4 4 2 1 2 2 2 2 2 1 2 4 3 3 1 1 4 6 4 4 13 6 10 11 10 9 10 8 11 10 9 7 6
21 19 18 12 16 14 11 7 6 2 3 5 4 4 6 6 6 7 4 1 6 3 1 3 3 3 1 2 2 3 3 4 2 2 2 4 4 5 2 1 4 4 7 8 8 8 10 10 7 9 7 7 6 6
18 14 7 15 13 12 9 3 1 2 5 4 4 4 4 6 4 2 7 1 1 1 1 2 3 2 1 2 2 4 4 3 3 3 1 1 3 3 4 10 13 8 5 4 6 6 7 7 6 6 7 6 7 7
15 4 17 16 13 8 5 3 6 7 4 3 3 4 5 1 6 5 3 4 5 3 1 4 1 1 2 3 6 3 4 3 4 4 4 2 4 4 6 7 1 4 5 6 4 5 5 5 6 6 6 5 6 6
4 11 16 14 9 6 5 7 4 1 2 3 3 3 4 3 4 4 4 3 5 3 2 1 3 3 5 7 3 3 3 4 4 4 3 4 7 1 2 4 5 5 4 4 5 3 5 5 5 4 5 5 5 4
10 10 13 11 1 4 3 2 3 3 3 5 3 2 5 2 4 4 1 5 3 0 1 2 3 3 2 3 4 4 6 6 4 4 4 5 1 2 4 5 5 3 2 3 4 3 3 5 4 4 2 4 4 3
13 9 7 6 7 4 2 2 1 4 3 3 2 2 2 2 2 3 1 3 3 1 0 3 2 4 4 3 5 4 2 4 3 4 4 3 1 4 5 4 4 4 1 3 4 3 1 3 2 3 3 3 3 3
5 4 2 3 2 3 4 1 4 3 3 2 3 3 1 3 3 2 2 2 2 2 3 3 5 10 11 5 4 3 5 5 4 3 3 3 3 3 1 1 2 3 3 1 2 2 2 3 0 2 2 4 3 3
4 3 3 4 3 2 3 3 2 2 2 3 3 0 2 2 2 2 1 1 1 1 1 1 3 4 4 3 4 4 3 2 2 4 3 2 1 1 1 2 1 0 0 2 3 2 1 1 3 3 2 1 3 2
6 3 3 3 3 1 5 2 1 0 2 2 2 2 2 1 3 2 2 1 1 3 6 4 5 4 3 1 4 5 4 3 2 2 3 2 1 1 2 2 1 2 2 1 2 3 4 2 2 1 1 3 3 2
0 1 2 3 3 3 2 2 3 4 3 2 1 2 4 3 3 2 2 2 3 3 6 6 3 2 4 4 3 2 2 2 1 2 1 1 2 1 2 2 2 2 3 1 1 1 3 3 5 4 5 6 5 5
3 4 2 4 3 1 4 3 4 3 2 1 0 4 2 3 3 2 1 1 2 3 3 4 2 2 3 3 3 3 3 1 1 2 1 2 2 1 2 4 3 3 3 3 4 4 4 4 3 6 2 3 4 6
1 2 2 3 3 2 1 4 4 9 8 8 8 3 2 1 2 2 1 4 5 5 3 3 4 2 3 3 3 2 2 3 2 1 3 4 4 3 5 4 2 1 2 1 3 5 4 5 5 2 2 3 6 3
2 3 3 7 7 5 3 2 1 2 3 4 3 2 3 2 2 2 3 5 3 1 2 4 2 2 3 2 2 2 3 2 4 3 4 4 3 3 4 5 4 4 1 5 4 3 2 4 4 1 3 4 4 4
2 3 5 6 4 3 4 2 3 3 4 3 3 3 1 1 4 2 1 1 3 3 4 2 2 2 1 2 2 3 2 3 6 5 5 4 5 3 0 5 4 3 1 1 1 2 3 5 5 3 1 3 4 1
2 3 6 4 6 4 4 4 3 4 6 4 3 3 3 2 2 1 2 1 2 1 1 3 4 4 3 2 2 3 4 4 2 7 7 3 4 6 5 4 4 4 4 4 3 1 2 2 3 4 4 3 3 4
2 3 2 3 3 3 1 5 3 3 4 4 1 2 2 1 4 4 1 1 1 2 4 3 4 5 4 5 5 8 7 6 2 4 3 3 5 9 6 7 7 8 7 5 4 5 5 2 2 3 5 1 2 2
2 2 1 1 3 4 5 5 2 1 1 1 1 1 1 1 2 2 1 2 3 2 4 5 7 5 5 4 6 7 1 2 4 3 5 7 3 3 5 3 1 4 4 5 3 4 4 1 3 5 3 3 5 1
4 5 3 3 3 3 1 2 1 1 1 2 3 3 1 1 1 1 1 2 1 2 5 4 4 2 3 3 4 5 4 4 3 2 6 4 4 4 4 2 2 2 3 9 5 3 2 3 4 4 4 5 5 4
4 5 6 4 2 4 5 4 3 3 4 5 4 5 6 3 4 3 2 3 3 3 1 1 5 7 10 6 7 9 5 1 5 6 4 2 1 4 2 3 3 4 4 6 8 6 5 6 4 3 3 3 3 3
Wind_Direction
197 196 194 194 194 200 212 225 228 243 268 297 322 334 341 347 354 356 281 279 12 315 320 1 9 30 356 26 22 313 351 352 3 316 260 282 269 263 177 95 344 67 305 231 258 225 241 353 328 345 53 3 358 161
198 195 191 191 190 194 207 215 219 232 253 282 312 327 337 344 352 349 274 349 329 240 281 325 302 338 328 338 10 349 252 29 10 345 9 311 357 357 353 26 333 55 129 256 242 201 324 346 264 328 297 187 39 98
200 194 188 186 185 188 198 210 212 221 240 267 300 321 335 340 344 357 293 304 303 244 287 208 219 159 296 212 358 77 18 5 48 279 272 272 84 5 11 264 297 119 211 11 25 29 327 30 4 353 307 96 50 110
199 190 187 184 182 183 192 203 202 211 227 250 282 312 327 335 333 342 301 303 299 287 266 132 112 163 194 100 206 319 87 356 269 253 268 266 311 190 180 196 111 191 352 25 276 357 343 354 13 360 349 304 246 168
197 189 184 181 180 181 187 195 195 203 218 237 265 301 320 328 326 307 263 270 333 342 315 302 188 150 179 149 265 214 39 329 303 324 323 279 354 15 337 348 97 50 125 91 264 176 219 300 328 343 323 324 257 229
193 185 181 179 178 179 181 192 189 196 213 234 261 295 312 321 325 282 233 63 19 360 289 297 66 154 125 145 246 186 255 231 229 250 282 295 87 105 295 301 219 114 111 170 157 200 58 26 44 4 335 276 241 104
195 185 181 177 175 175 179 184 179 188 208 230 261 291 302 312 302 295 342 319 356 302 252 281 197 160 163 161 226 224 213 233 195 253 258 285 292 104 212 263 300 131 154 141 181 173 118 53 12 4 317 346 13 38
194 184 178 175 171 169 173 171 170 179 201 228 267 291 298 292 275 280 219 229 229 258 278 284 187 155 186 206 226 193 229 198 238 204 243 261 327 183 232 294 328 120 151 162 155 152 163 161 85 309 294 42 38 31
188 181 174 171 166 162 161 161 163 173 191 233 289 299 292 211 242 69 118 196 242 300 312 266 291 110 199 247 245 204 182 197 229 220 229 168 214 251 222 222 243 125 109 125 266 199 173 183 186 150 78 68 51 353
222 185 174 167 157 151 151 151 154 158 162 287 281 219 232 84 128 132 178 179 211 198 226 255 305 278 175 225 223 354 96 252 308 256 290 195 232 246 293 252 146 114 92 14 349 357 3 355 86 91 78 77 91 61
216 184 170 155 146 145 147 150 150 135 94 215 227 240 77 119 217 221 197 218 183 217 205 231 247 306 299 65 63 55 13 338 308 288 16 325 42 26 12 29 66 93 79 65 23 8 1 20 80 92 111 118 109 73
130 160 146 138 140 143 148 149 160 185 169 292 297 278 135 223 234 208 203 215 235 217 203 201 219 203 12 43 55 191 155 284 256 58 354 272 51 326 28 22 341 338 13 73 61 19 339 29 43 101 89 97 88 98
99 95 118 127 134 140 147 150 180 254 345 275 211 212 169 181 138 203 191 189 206 241 86 215 171 147 71 18 289 127 193 251 125 100 205 67 87 342 346 47 310 331 312 357 4 231 327 355 63 93 140 100 152 141
131 129 127 130 143 147 148 162 186 263 274 258 175 347 186 186 208 222 206 203 216 163 152 207 84 178 119 127 267 218 164 1 321 242 101 349 26 202 113 89 322 276 358 26 29 11 23 29 31 53 46 48 59 60
124 134 146 151 133 139 140 143 171 225 265 255 196 186 210 242 214 223 83 23 38 339 169 130 48 350 175 140 256 45 181 223 183 58 79 358 3 48 98 235 260 40 34 24 22 12 15 17 38 47 34 31 39 46
140 121 101 134 147 131 129 143 159 258 241 236 237 223 219 234 214 138 116 124 308 133 1 55 96 318 138 326 245 174 247 30 68 67 113 102 76 20 19 12 334 337 27 26 29 11 352 9 4 38 53 49 46 48
172 96 158 145 139 136 149 216 212 222 279 258 243 256 213 169 57 39 318 109 356 44 48 77 114 311 299 210 204 18 52 83 117 193 192 203 218 208 170 221 95 6 35 45 43 13 8 3 36 56 56 26 66 56
100 130 133 135 148 167 202 209 255 264 271 264 284 62 95 86 72 51 351 54 74 307 41 172 62 29 15 354 24 5 307 280 145 182 194 239 259 61 30 14 27 22 1 30 35 24 47 15 57 58 53 46 85 48
127 140 156 165 264 292 183 242 323 314 247 305 215 299 80 5 106 156 158 301 283 7 286 56 83 85 130 229 206 176 182 255 226 198 196 226 247 18 36 17 335 20 38 24 62 60 70 60 44 40 5 46 73 42
105 95 71 43 1 314 172 116 257 275 286 327 78 33 353 69 331 113 117 297 287 227 285 112 188 116 184 215 176 254 350 7 355 124 151 181 171 57 59 1 10 344 351 51 72 49 195 140 122 89 47 37 68 40
91 39 41 299 275 212 290 225 207 268 296 322 45 257 334 204 220 167 230 231 250 261 84 52 96 136 218 238 157 156 47 41 26 33 38 49 2 52 43 69 34 336 27 9 115 236 224 81 130 74 76 71 50 17
92 229 281 206 267 248 267 263 322 1 320 322 358 190 311 148 296 296 112 312 49 143 122 118 93 125 125 84 59 40 42 335 269 121 124 153 359 59 318 68 65 346 63 35 46 37 78 71 58 78 125 166 228 206
185 243 294 291 314 340 256 29 302 203 257 220 142 191 232 72 180 229 256 221 278 91 98 106 97 109 112 159 112 103 67 22 358 82 173 224 58 61 10 26 280 125 154 245 3 96 75 81 86 292 256 253 270 223
117 285 266 255 219 278 73 49 20 356 334 39 20 251 169 190 163 209 245 151 263 146 128 138 183 228 156 113 67 74 105 51 343 121 257 241 245 173 193 215 214 241 104 135 8 129 195 224 221 220 229 260 243 213
290 285 150 283 254 253 50 19 16 357 339 119 204 256 202 171 187 217 140 165 55 343 122 156 132 348 52 91 99 83 86 143 127 347 73 180 99 99 252 196 160 211 193 196 206 224 247 272 245 249 242 196 339 354
287 225 145 1 56 358 159 222 225 207 180 190 204 181 199 155 142 237 12 66 71 49 24 40 90 34 6 89 129 156 173 194 116 322 276 206 206 219 169 163 143 266 227 287 96 185 252 255 245 279 316 290 231 323
271 263 234 174 216 210 248 247 139 199 155 135 134 118 182 150 221 94 87 33 68 9 13 47 60 101 148 139 134 182 220 227 204 233 291 199 231 227 163 181 187 226 46 298 280 267 320 308 313 221 119 287 98 103
280 307 329 341 310 300 316 5 332 28 45 337 161 151 202 32 51 40 89 210 136 206 101 106 85 116 184 167 155 57 359 278 280 261 256 237 202 221 182 195 187 166 324 145 210 97 289 230 252 288 30 326 158 230
254 324 323 304 311 308 22 22 354 43 345 347 22 36 54 73 79 105 135 103 176 258 279 227 182 163 216 73 360 315 280 262 236 239 249 281 216 214 206 217 175 194 202 169 197 134 57 60 344 329 353 26 72 43
20 347 291 277 286 258 12 36 17 350 2 8 3 230 208 78 28 49 43 325 106 243 238 228 156 177 178 187 229 258 241 226 136 92 335 292 241 273 211 210 219 195 215 184 197 208 251 263 220 317 291 315 191 215
313 281 4 277 267 286 307 327 331 336 22 83 19 24 11 323 76 66 117 220 253 180 227 189 164 188 216 227 248 245 231 333 336 313 283 276 248 346 351 2 53 115 139 171 232 194 209 240 274 209 169 243 257 308
202 210 204 244 248 246 88 235 231 124 138 192 172 197 195 155 249 110 165 183 180 82 15 336 250 281 44 261 305 313 315 222 181 33 49 356 15 10 340 336 92 65 33 2 290 195 153 152 194 58 21 15 41 41
202 186 213 271 209 195 197 218 223 212 194 181 179 202 203 158 84 105 119 106 76 52 23 298 285 296 300 290 260 262 264 238 117 112 136 158 175 326 322 350 182 180 116 290 293 303 184 132 116 139 92 32 321 284